This demonstration page uses our WeatherBlox Daily Observations layout. Learn more.

38.80484, -77.04692

Hourly Observations for August 12, 2020

Temp ( °F °C ) Dew Point ( °F °C ) Humidity (%) Winds ( mph kmh ) Pressure ( in mb ) Visibility ( mi km ) Precip ( " mm )
12:52 am 00:52 Mostly Cloudy 82 27.8 76 24.4 82 82 S 8 13 29.97 1015 10 16.0934 0 0
1:52 am 01:52 Mostly Cloudy 81 27.2 74 23.3 79 79 SSW 8 13 29.98 1015 10 16.0934 0 0
2:52 am 02:52 Mostly Cloudy 80 26.7 74 23.3 82 82 SSW 5 7 29.97 1015 10 16.0934 0 0
3:01 am 03:01 Mostly Cloudy 80 26.7 74 23.3 82 82 SSW 5 7 29.98 1015 10 16.0934 0 0
3:52 am 03:52 Cloudy 80 26.7 75 23.9 85 85 SSW 6 9 29.98 1015 10 16.0934 0 0
4:52 am 04:52 Cloudy with Light Rain 77 25 72 22.2 85 85 W 7 11 29.99 1016 7 11.26538 0.01 0.254
4:55 am 04:55 Cloudy with Nearby Thunderstorms 77 25 72 22.2 85 85 WSW 8 13 29.99 1015 10 16.0934 0.001 0.001
5:09 am 05:09 Cloudy with Light Thunderstorms 77 25 72 22.2 85 85 W 7 11 30 1016 7 11.26538 0.01 0.254
5:52 am 05:52 Cloudy with Light Rain 75 23.9 71 21.7 88 88 WNW 12 19 30.01 1016 7 11.26538 0.06 1.524
6:52 am 06:52 Mostly Cloudy with Light Rain 75 23.9 71 21.7 88 88 WNW 7 11 30.02 1017 8 12.87472 0.13 3.302
7:37 am 07:37 Cloudy with Light Rain 76 24.4 72 22.2 88 88 Calm 30.02 1017 8 12.87472 0.05 1.27
7:52 am 07:52 Cloudy with Light Rain 76 24.4 73 22.8 91 91 NNE 3 6 30.02 1017 10 16.0934 0.05 1.27
8:27 am 08:27 Mostly Cloudy 77 25 73 22.8 88 88 NNW 5 7 30.02 1017 10 16.0934 0.01 0.254
8:52 am 08:52 Mostly Cloudy 78 25.6 74 23.3 87 87 ENE 3 6 30.02 1017 10 16.0934 0.01 0.254
9:52 am 09:52 Mostly Cloudy 80 26.7 75 23.9 85 85 SSE 5 7 30.03 1017 10 16.0934 0 0
10:52 am 10:52 Mostly Cloudy 80 26.7 75 23.9 85 85 S 9 15 30.04 1017 10 16.0934 0 0
11:52 am 11:52 Partly Cloudy 83 28.3 76 24.4 79 79 SE 3 6 30.04 1017 10 16.0934 0 0
12:52 pm 12:52 Partly Cloudy 88 31.1 76 24.4 68 68 Calm 30.03 1017 10 16.0934 0 0
1:52 pm 13:52 Partly Cloudy 89 31.7 76 24.4 65 65 SSE 7 11 30 1016 10 16.0934 0 0
2:52 pm 14:52 Partly Cloudy 88 31.1 75 23.9 66 66 S 6 9 29.98 1015 10 16.0934 0 0
3:43 pm 15:43 Mostly Cloudy with Nearby Thunderstorms 91 32.8 75 23.9 59 59 SW 10 17 29.97 1015 10 16.0934 0 0
3:52 pm 15:52 Mostly Cloudy with Nearby Thunderstorms 92 33.3 74 23.3 56 56 S 7 11 29.97 1015 10 16.0934 0 0
4:52 pm 16:52 Mostly Cloudy with Nearby Thunderstorms 84 28.9 73 22.8 70 70 ESE 10 17 29.99 1016 10 16.0934 0 0
4:58 pm 16:58 Mostly Cloudy 85 29.4 72 22.2 65 65 SE 8 13 30 1016 10 16.0934 0 0
5:28 pm 17:28 Sunny with Nearby Thunderstorms 86 30 72 22.2 63 63 S 8 13 29.99 1015 10 16.0934 0 0
5:42 pm 17:42 Mostly Cloudy 86 30 72 22.2 63 63 S 6 9 29.99 1015 10 16.0934 0 0
5:52 pm 17:52 Mostly Cloudy with Nearby Thunderstorms 86 30 72 22.2 63 63 S 5 7 29.99 1016 10 16.0934 0 0
6:50 pm 18:50 Mostly Cloudy 81 27 72 22 74 74 ENE 14 22 30.03 1017 10 16.0934 0 0
6:52 pm 18:52 Mostly Cloudy 81 27.2 71 21.7 72 72 ENE 15 24 30.03 1017 10 16.0934 0 0
7:52 pm 19:52 Mostly Cloudy 79 26.1 70 21.1 74 74 N 8 13 30.05 1018 10 16.0934 0 0
8:52 pm 20:52 Mostly Cloudy 78 25.6 71 21.7 79 79 Calm 30.03 1017 10 16.0934 0 0
9:52 pm 21:52 Partly Cloudy 78 25.6 71 21.7 79 79 E 3 6 30.04 1017 10 16.0934 0 0
10:52 pm 22:52 Mostly Cloudy 78 25.6 72 22.2 82 82 ENE 7 11 30.04 1017 10 16.0934 0 0
11:32 pm 23:32 Mostly Cloudy 78 25.6 72 22.2 82 82 ENE 5 7 30.06 1018 10 16.0934 0 0
11:52 pm 23:52 Cloudy 78 25.6 72 22.2 82 82 NE 6 9 30.06 1018 10 16.0934 0 0

Powered by AerisWeather